Weather History for Starkville, MS

Change the Weather History Date:

Friday, March 15, 2013

  Actual Average Record
Temperature  
Mean Temperature 57 °F -  
Max Temperature 77 °F 66 °F 82 °F (2012)
Min Temperature 37 °F 44 °F 37 °F (2013)
Degree Days  
Heating Degree Days 8    
Growing Degree Days 7 (Base 50)    
Moisture  
Dew Point 40 °F    
Average Humidity 56    
Maximum Humidity 93    
Minimum Humidity 28    
Precipitation  
Precipitation 0.00 in - - ()
Sea Level Pressure  
Sea Level Pressure 30.11 in    
Wind  
Wind Speed 4 mph (SSW)    
Max Wind Speed 14 mph    
Max Gust Speed 21 mph    
Visibility 10 miles    
Events      
Averages and records for this station are not official NWS values.
T = Trace of Precipitation, MM = Missing Value Source: NWS Daily Summary

Daily Weather History Graph

Daily Weather History Graph

Search for Another Location

Airport:

Trip Planner

Search our weather history database for the weather conditions in past years. The results will help you decide how hot, cold, wet, or windy it might be!

Date:

Astronomy

Mar. 15, 2013 Rise Set
Actual Time 7:05 AM CDT 7:03 PM CDT
Civil Twilight 6:40 AM CDT 7:28 PM CDT
Nautical Twilight 6:11 AM CDT 7:57 PM CDT
Astronomical Twilight 5:42 AM CDT 8:26 PM CDT
Moon 9:08 AM CDT (3/15) 11:03 PM CDT (3/15)
Length of Visible Light 12h 47m
Length of Day
11h 58m
Waxing Crescent, 15% of the Moon is Illuminated
Mar 15
Waxing Crescent
Mar 19
First Quarter
Mar 27
Full
Apr 2
Last Quarter
Apr 10
New

Hourly Weather History & Observations

Time (CDT) Temp. Windchill Dew Point Humidity Pressure Visibility Wind Dir Wind Speed Gust Speed Precip Events Conditions
12:15 AM 41.0 °F - 35.6 °F 81% 30.23 in 10.0 mi Calm Calm - N/A   Clear
12:35 AM 41.0 °F - 35.6 °F 81% 30.23 in 10.0 mi Calm Calm - N/A   Clear
12:55 AM 41.0 °F - 35.6 °F 81% 30.23 in 10.0 mi Calm Calm - N/A   Clear
1:15 AM 39.2 °F - 33.8 °F 81% 30.23 in 10.0 mi Calm Calm - N/A   Clear
1:35 AM 37.4 °F 34.9 °F 35.6 °F 93% 30.23 in 10.0 mi SSE 3.5 mph - N/A   Clear
2:15 AM 41.0 °F 38.0 °F 35.6 °F 81% 30.22 in 10.0 mi SSE 4.6 mph - N/A   Clear
2:35 AM 41.0 °F 38.0 °F 35.6 °F 81% 30.22 in 10.0 mi SSE 4.6 mph - N/A   Clear
2:55 AM 41.0 °F 38.0 °F 35.6 °F 81% 30.21 in 10.0 mi SSE 4.6 mph - N/A   Clear
3:15 AM 39.2 °F 37.0 °F 35.6 °F 87% 30.20 in 10.0 mi South 3.5 mph - N/A   Clear
3:35 AM 41.0 °F 39.0 °F 35.6 °F 81% 30.20 in 10.0 mi South 3.5 mph - N/A   Clear
3:55 AM 39.2 °F 37.0 °F 35.6 °F 87% 30.19 in 10.0 mi South 3.5 mph - N/A   Clear
4:15 AM 39.2 °F 37.0 °F 35.6 °F 87% 30.19 in 10.0 mi South 3.5 mph - N/A   Clear
4:35 AM 39.2 °F 37.0 °F 35.6 °F 87% 30.19 in 10.0 mi South 3.5 mph - N/A   Clear
4:55 AM 37.4 °F 34.9 °F 35.6 °F 93% 30.19 in 10.0 mi South 3.5 mph - N/A   Clear
5:15 AM 39.2 °F 37.0 °F 35.6 °F 87% 30.18 in 10.0 mi South 3.5 mph - N/A   Clear
5:35 AM 41.0 °F 39.0 °F 35.6 °F 81% 30.17 in 10.0 mi South 3.5 mph - N/A   Clear
5:55 AM 41.0 °F - 33.8 °F 76% 30.18 in 10.0 mi Calm Calm - N/A   Clear
6:15 AM 37.4 °F - 35.6 °F 93% 30.18 in 10.0 mi Calm Calm - N/A   Clear
6:35 AM 37.4 °F - 35.6 °F 93% 30.18 in 10.0 mi Calm Calm - N/A   Clear
6:55 AM 37.4 °F 34.9 °F 33.8 °F 87% 30.19 in 10.0 mi SSW 3.5 mph - N/A   Clear
7:15 AM 37.4 °F - 35.6 °F 93% 30.19 in 10.0 mi Calm Calm - N/A   Clear
7:35 AM 41.0 °F - 35.6 °F 81% 30.19 in 10.0 mi Calm Calm - N/A   Clear
7:55 AM 42.8 °F - 37.4 °F 81% 30.19 in 10.0 mi Calm Calm - N/A   Clear
8:15 AM 46.4 °F 44.3 °F 37.4 °F 71% 30.19 in 10.0 mi SW 4.6 mph - N/A   Clear
8:35 AM 50.0 °F - 39.2 °F 66% 30.19 in 10.0 mi SW 5.8 mph - N/A   Clear
8:55 AM 51.8 °F - 41.0 °F 67% 30.19 in 10.0 mi SW 4.6 mph - N/A   Clear
9:15 AM 55.4 °F - 42.8 °F 63% 30.18 in 10.0 mi SW 5.8 mph - N/A   Clear
9:35 AM 59.0 °F - 42.8 °F 55% 30.18 in 10.0 mi WSW 5.8 mph - N/A   Clear
9:55 AM 60.8 °F - 42.8 °F 52% 30.18 in 10.0 mi SW 6.9 mph - N/A   Clear
10:55 AM 64.4 °F - 42.8 °F 45% 30.17 in 10.0 mi SW 11.5 mph - N/A   Clear
11:15 AM 66.2 °F - 42.8 °F 43% 30.17 in 10.0 mi SW 10.4 mph - N/A   Clear
11:35 AM 68.0 °F - 44.6 °F 43% 30.17 in 10.0 mi West 10.4 mph - N/A   Clear
11:55 AM 69.8 °F - 44.6 °F 40% 30.16 in 10.0 mi WSW 10.4 mph - N/A   Clear
12:15 PM 71.6 °F - 44.6 °F 38% 30.16 in 10.0 mi West 10.4 mph 16.1 mph N/A   Clear
12:35 PM 71.6 °F - 44.6 °F 38% 30.14 in 10.0 mi WSW 9.2 mph - N/A   Clear
12:55 PM 73.4 °F - 44.6 °F 36% 30.14 in 10.0 mi WSW 9.2 mph 17.3 mph N/A   Clear
1:15 PM 73.4 °F - 44.6 °F 36% 30.13 in 10.0 mi West 10.4 mph 17.3 mph N/A   Clear
1:35 PM 73.4 °F - 44.6 °F 36% 30.12 in 10.0 mi West 5.8 mph 16.1 mph N/A   Clear
1:55 PM 73.4 °F - 44.6 °F 36% 30.11 in 10.0 mi WSW 10.4 mph 20.7 mph N/A   Clear
2:15 PM 73.4 °F - 44.6 °F 36% 30.10 in 10.0 mi West 10.4 mph - N/A   Clear
2:35 PM 73.4 °F - 44.6 °F 36% 30.09 in 10.0 mi WSW 9.2 mph 17.3 mph N/A   Clear
2:55 PM 75.2 °F - 44.6 °F 34% 30.07 in 10.0 mi SW 10.4 mph - N/A   Clear
3:15 PM 75.2 °F - 42.8 °F 31% 30.06 in 10.0 mi SW 10.4 mph 17.3 mph N/A   Clear
3:35 PM 77.0 °F - 44.6 °F 32% 30.05 in 10.0 mi South 6.9 mph - N/A   Clear
3:55 PM 77.0 °F - 42.8 °F 29% 30.04 in 10.0 mi SSW 10.4 mph - N/A   Clear
4:15 PM 77.0 °F - 42.8 °F 29% 30.04 in 10.0 mi SSW 10.4 mph 16.1 mph N/A   Clear
4:35 PM 77.0 °F - 42.8 °F 29% 30.04 in 10.0 mi WSW 10.4 mph 18.4 mph N/A   Clear
4:55 PM 77.0 °F - 41.0 °F 28% 30.04 in 10.0 mi SW 13.8 mph 19.6 mph N/A   Clear
5:15 PM 75.2 °F - 42.8 °F 31% 30.02 in 10.0 mi SSW 10.4 mph 17.3 mph N/A   Clear
5:35 PM 75.2 °F - 41.0 °F 29% 30.02 in 10.0 mi SW 10.4 mph 19.6 mph N/A   Clear
5:55 PM 73.4 °F - 42.8 °F 33% 30.01 in 10.0 mi SW 9.2 mph - N/A   Clear
6:15 PM 71.6 °F - 41.0 °F 33% 30.02 in 10.0 mi SW 8.1 mph - N/A   Clear
6:35 PM 71.6 °F - 42.8 °F 35% 30.02 in 10.0 mi SW 5.8 mph - N/A   Clear
6:55 PM 69.8 °F - 42.8 °F 38% 30.01 in 10.0 mi SSW 4.6 mph - N/A   Clear
7:15 PM 69.8 °F - 42.8 °F 38% 30.02 in 10.0 mi SSW 5.8 mph - N/A   Clear
7:35 PM 68.0 °F - 42.8 °F 40% 30.02 in 10.0 mi SSW 5.8 mph - N/A   Clear
7:55 PM 68.0 °F - 41.0 °F 37% 30.01 in 10.0 mi SSW 5.8 mph - N/A   Clear
8:15 PM 64.4 °F - 41.0 °F 42% 30.01 in 10.0 mi South 4.6 mph - N/A   Clear
8:35 PM 64.4 °F - 41.0 °F 42% 30.01 in 10.0 mi South 4.6 mph - N/A   Clear
8:55 PM 64.4 °F - 42.8 °F 45% 30.01 in 10.0 mi South 3.5 mph - N/A   Clear
9:15 PM 62.6 °F - 42.8 °F 48% 30.01 in 10.0 mi South 3.5 mph - N/A   Clear
9:35 PM 60.8 °F - 42.8 °F 52% 30.01 in 10.0 mi South 3.5 mph - N/A   Clear
9:55 PM 60.8 °F - 42.8 °F 52% 30.00 in 10.0 mi South 4.6 mph - N/A   Clear
10:15 PM 60.8 °F - 42.8 °F 52% 30.00 in 10.0 mi South 5.8 mph - N/A   Clear
10:35 PM 62.6 °F - 41.0 °F 45% 30.00 in 10.0 mi SSW 8.1 mph - N/A   Clear
10:55 PM 64.4 °F - 41.0 °F 42% 30.00 in 10.0 mi SSW 9.2 mph - N/A   Clear
11:15 PM 64.4 °F - 41.0 °F 42% 30.00 in 10.0 mi SSW 9.2 mph 16.1 mph N/A   Clear
11:35 PM 64.4 °F - 41.0 °F 42% 30.00 in 10.0 mi SSW 8.1 mph - N/A   Clear
11:55 PM 62.6 °F - 41.0 °F 45% 29.99 in 10.0 mi SSW 8.1 mph - N/A   Clear